Regional Weather Roundup
Issued by NWS

Home | Current Version | Previous Version | Graphics & Text | Print | Product List | Glossary On
Versions: 1 2 3 4 5 6 7 8 9 10 11 12 13 14 15 16 17 18 19 20 21 22 23 24 25 26 27 28 29 30 31 32 33 34 35 36 37 38 39 40 41 42 43 44 45 46 47 48 49 50
000
ASUS43 KIND 231809
RWRIN

WEATHER ROUNDUP FOR INDIANA
NATIONAL WEATHER SERVICE INDIANAPOLIS IN
200 PM EDT THU MAR 23 2017

NOTE: "FAIR" INDICATES FEW OR NO CLOUDS BELOW 12,000 FEET WITH NO
SIGNIFICANT WEATHER AND/OR OBSTRUCTIONS TO VISIBILITY.

* - STATION DOES NOT REPORT WEATHER SUCH AS PRECIPITATION OR FOG.

+ - STATION NOT QUALITY CONTROLLED BY THE NATIONAL WEATHER SERVICE.
    USE DATA WITH CAUTION...ESPECIALLY DEWPOINT AND RELATIVE
    HUMIDITY OBSERVATIONS.

INZ001>003-010>013-019-020-231900-
NORTHWEST INDIANA

CITY           SKY/WX    TMP DP  RH WIND       PRES   REMARKS
GARY /AIRPORT/ MOSUNNY   46  18  31 SE14G25   30.33F
KNOX *+        CLOUDY    39  -2  17 S14       30.38F
LA PORTE +     CLOUDY    40  21  47 SE14      30.38F
MICHIGAN CITY+ MOSUNNY   43  21  42 S12G17    30.36F
MONTICELLO +   MOSUNNY   44  24  46 E10G16    30.35F
6HR MIN TEMP:  28; 6HR MAX TEMP:  44;

RENSSELAER +     N/A     45  28  53 SE14      30.34F
VALPARAISO     MOSUNNY   43  21  41 S15G23    30.34F
6HR MIN TEMP:  29; 6HR MAX TEMP:  44;


$$

LMZ046-743>745-231900-
SOUTHERN LAKE MICHIGAN

STATION/POSITION TIME  TEMP    WIND        PRES    WAVE
                       AIR SEA DIR/SP/G            HT
                 (UTC) (F)     (DEG/KT/KT) (MB)    (FT)
BURNS HARBOR     1740   42     170/ 10/ 20 1027.8F
MICHIGAN CITY    1740   38     140/ 15/ 20   N/A

$$

INZ004-005-014>016-021>024-231900-
NORTH CENTRAL INDIANA

CITY           SKY/WX    TMP DP  RH WIND       PRES   REMARKS
ELKHART        CLOUDY    37  16  41 SE12      30.39F
GOSHEN         CLOUDY    38  17  42 SE13      30.40F
6HR MIN TEMP:  26; 6HR MAX TEMP:  38;

LOGANSPORT +   MOSUNNY   43  25  49 SE13      30.38F
ROCHESTER +    CLOUDY    41  23  48 SE9       30.39F
SOUTH BEND       N/A     37  18  46 SE17      30.39F
WARSAW +       CLOUDY    37  19  48 SE12      30.39F

$$

INZ006>009-017-018-025>027-231900-
NORTHEAST INDIANA

CITY           SKY/WX    TMP DP  RH WIND       PRES   REMARKS
ANGOLA *+      SUNNY     39  25  56 SE14      30.40F
AUBURN +       CLOUDY    39  19  45 SE7       30.42F
FORT WAYNE     CLOUDY    41  22  46 SE9       30.42F
6HR MIN TEMP:  24; 6HR MAX TEMP:  42;

HUNTINGTON +   CLOUDY    39  20  47 SE8       30.40F
6HR MIN TEMP:  24; 6HR MAX TEMP:  39;

KENDALLVILLE + CLOUDY    38  18  43 SE12      30.40F

$$

INZ028-029-035-036-043>045-051>053-231900-
WEST CENTRAL INDIANA

CITY           SKY/WX    TMP DP  RH WIND       PRES   REMARKS
CRAWFORDSVL +  CLOUDY    47  25  41 SE8       30.33F
6HR MIN TEMP:  27; 6HR MAX TEMP:  47;

GREENCASTLE +  CLOUDY    48  21  34 S9        30.34F
LAFAYETTE      MOSUNNY   49  23  36 S13G18    30.33F
6HR MIN TEMP:  26; 6HR MAX TEMP:  49;

TERRE HAUTE    CLOUDY    47  23  38 SE9       30.33F
6HR MIN TEMP:  30; 6HR MAX TEMP:  47; 6HR PCP: TRACE;


$$

INZ030>032-037>040-046>048-054>057-064-065-231900-
CENTRAL INDIANA

CITY           SKY/WX    TMP DP  RH WIND       PRES   REMARKS
ANDERSON       PTSUNNY   45  25  45 SE10      30.38F
CP ATTERBURY + SUNNY     52  21  30 SE8       30.36F
COLUMBUS       MOSUNNY   50  23  34 SE8       30.38F
FRANKFORT +    PTSUNNY   51  26  38 S12G20    30.35F
6HR MIN TEMP:  29; 6HR MAX TEMP:  51;

GREENWOOD *+   SUNNY     50  27  40 SE9       30.37F
6HR MIN TEMP:  29; 6HR MAX TEMP:  50;

INDIANAPOLIS   MOSUNNY   49  23  36 SE13      30.34F
6HR MIN TEMP:  28; 6HR MAX TEMP:  50;

-EAGLE CREEK   SUNNY     49  21  33 SE14      30.34F
6HR MIN TEMP:  29; 6HR MAX TEMP:  49;

KOKOMO +       CLOUDY    43  24  47 SE15      30.38F
6HR MIN TEMP:  27; 6HR MAX TEMP:  43;

MARION +       CLOUDY    40  22  48 SE12G17   30.39F HAZE
MT COMFORT *+  SUNNY     48  25  40 SE12      30.36F
SHELBYVILLE    SUNNY     51  24  34 SE13      30.36F
6HR MIN TEMP:  29; 6HR MAX TEMP:  51;

ZIONSVILLE +   PTSUNNY   46  24  41 SE13      30.35F
6HR MIN TEMP:  26; 6HR MAX TEMP:  47;


$$

INZ033-034-041-042-049-050-058-059-231900-
EAST CENTRAL INDIANA

CITY           SKY/WX    TMP DP  RH WIND       PRES   REMARKS
MUNCIE         CLOUDY    45  20  36 SE14      30.37F
6HR MIN TEMP:  27; 6HR MAX TEMP:  45;

RICHMOND +     CLOUDY    45  23  42 SE13      30.38F

$$

INZ060-061-067>069-081>083-085>088-231900-
SOUTHWEST INDIANA

CITY           SKY/WX    TMP DP  RH WIND       PRES   REMARKS
EVANSVILLE     LGT RAIN  44  29  55 E5        30.35F
6HR MIN TEMP:  36; 6HR MAX TEMP:  45; 6HR PCP:  0.01;

HUNTINGBURG *+ LGT RAIN  44  29  55 S5        30.35F
6HR MIN TEMP:  34; 6HR MAX TEMP:  45; 6HR PCP:  0.01;

WASHINGTON +   LGT RAIN  45  27  49 MISG      30.34F
6HR MIN TEMP:  32; 6HR MAX TEMP:  45;


$$

INZ062-063-066-070>080-084-089>092-231900-
SOUTH CENTRAL AND SOUTHEAST INDIANA

CITY           SKY/WX    TMP DP  RH WIND       PRES   REMARKS
BEDFORD +      PTSUNNY   50  19  29 E6        30.35F
BLOOMINGTON    PTSUNNY   50  21  32 SE9       30.33F
6HR MIN TEMP:  30; 6HR MAX TEMP:  51;

MADISON *+     SUNNY     52  18  25 SE5       30.39F
NORTH VERNON + SUNNY     50  16  25 SE5       30.38F
SEYMOUR +      PTSUNNY   52  27  37 SE7       30.36F

$$




USA.gov is the U.S. government's official web portal to all federal, state and local government web resources and services.